Location: Cuneo
(44.3830°N, 7.5330°E)
Time: 09:16:17
(UTC+02:00)

ISS - Visible Passes

Search period start: 08 May 2021 00:00
Search period end: 18 May 2021 00:00
Orbit: 418 x 421 km, 51.6° (Epoch: 08 May)

Date Brightness Start Highest point End Pass type
(mag) Time Alt. Az. Time Alt. Az. Time Alt. Az.
08 May -1.8 02:49:25 30° NNE 02:49:25 30° NNE 02:51:35 10° NE visible
08 May -1.4 04:23:01 10° NW 04:25:47 23° N 04:28:34 10° NE visible
09 May -0.9 02:03:27 15° NE 02:03:27 15° NE 02:04:11 10° NE visible
09 May -1.5 03:36:22 16° NW 03:38:11 24° N 03:40:59 10° NE visible
09 May -1.7 05:12:39 10° NW 05:15:41 29° NNE 05:18:42 10° ENE visible
10 May -1.7 02:50:23 26° NNW 02:50:34 26° N 02:53:31 10° NE visible
10 May -1.5 04:25:13 10° NW 04:28:06 25° N 04:31:00 10° ENE visible
11 May -1.3 02:04:21 23° NNE 02:04:21 23° NNE 02:06:04 10° NE visible
11 May -1.4 03:37:42 10° NW 03:40:29 23° N 03:43:18 10° ENE visible
11 May -2.7 05:14:33 10° NW 05:17:51 49° NNE 05:21:09 10° E visible
12 May -0.7 01:18:17 12° NE 01:18:17 12° NE 01:18:39 10° NE visible
12 May -1.3 02:51:12 16° NW 02:52:53 23° N 02:55:39 10° NE visible
12 May -2.1 04:27:09 10° NW 04:30:19 36° NNE 04:33:30 10° E visible
13 May -1.4 02:05:02 23° NNW 02:05:16 24° N 02:08:04 10° NE visible
13 May -1.7 03:39:44 10° NW 03:42:46 29° NNE 03:45:47 10° ENE visible
13 May -3.8 05:16:27 10° WNW 05:19:50 73° SSW 05:23:11 10° SE visible
14 May -1.3 01:18:39 22° NNE 01:18:39 22° NNE 01:20:34 10° NE visible
14 May -1.4 02:52:18 10° NW 02:55:11 25° N 02:58:04 10° ENE visible
14 May -3.5 04:29:01 10° WNW 04:32:23 73° NNE 04:35:46 10° ESE visible
14 May -3.9 22:49:43 10° SW 22:53:03 66° SE 22:55:40 15° ENE visible
15 May -1.8 00:27:02 10° W 00:30:04 31° NNW 00:33:07 10° NE visible
15 May -1.3 02:04:46 10° NW 02:07:34 23° N 02:10:22 10° ENE visible
15 May -2.8 03:41:36 10° NW 03:44:54 49° NNE 03:48:12 10° ESE visible
15 May -2.8 05:18:40 10° WNW 05:21:35 27° SW 05:24:30 10° SSE visible
15 May -3.4 22:02:31 10° SSW 22:05:41 40° SE 22:08:52 10° ENE visible
15 May -2.3 23:39:20 10° W 23:42:31 38° NNW 23:45:43 10° NE visible
16 May -1.3 01:17:10 10° NW 01:19:57 23° N 01:22:42 10° NE visible
16 May -2.2 02:54:13 10° NW 02:57:23 37° NNE 03:00:33 10° E visible
16 May -3.5 04:31:01 10° WNW 04:34:15 44° SW 04:37:29 10° SE visible
16 May -3.0 22:51:42 10° WSW 22:55:00 53° NNW 22:58:19 10° NE visible
17 May -1.3 00:29:31 10° WNW 00:32:19 24° N 00:35:07 10° NE visible
17 May -1.8 02:06:47 10° NW 02:09:49 29° NNE 02:12:50 10° ENE visible
17 May -3.9 03:43:30 10° WNW 03:46:52 73° SW 03:50:14 10° SE visible
17 May -1.7 05:22:34 10° WSW 05:23:08 10° SW 05:23:42 10° SW visible
17 May -3.6 22:04:10 10° WSW 22:07:31 79° NNW 22:10:54 10° ENE visible
17 May -1.5 23:41:49 10° WNW 23:44:42 26° N 23:47:37 10° NE visible
